Location: Hains Lake
(37.8540°N, 99.8578°W)
Time: 01:48:37
(UTC+00:00)

ISS - Pass Details

Date: 14 March 2021
Orbit: 418 x 422 km, 51.6° (Epoch: 11 April)

Event Time Altitude Azimuth Distance (km) Brightness Sun altitude
Exits shadow 11:04:47 24° 153° (SSE) 904 -2.0 -21.7°
Drops below altitude 10° 11:06:18 10° 144° (SE) 1,487 -0.7 -21.4°
Sets 11:08:25 0° 140° (SE) 2,347 0.4 -21.0°
